Wind_Speed
37 37 39 40 42 43 46 44 47 53 59 65 69 73 76 80 80 84 90 91 93 95 98 100 103 103 105 108 111 113 118 120 119 120 122 123 115 110 104 96 88 81 77
38 39 42 43 44 46 46 47 49 57 62 64 75 72 74 78 85 92 94 94 95 98 101 103 106 107 110 113 115 119 122 121 121 120 123 120 112 104 97 91 84 77 72
39 42 43 46 47 47 48 50 55 60 64 69 67 78 82 85 88 91 95 96 98 100 104 106 108 111 115 116 120 122 121 122 123 121 116 113 107 100 93 86 81 73 67
44 46 47 48 50 51 53 56 59 63 68 73 75 80 85 88 91 93 96 98 100 102 105 107 110 114 116 120 122 121 122 125 124 118 112 108 103 95 88 80 75 69 64
44 44 44 50 52 53 58 60 62 67 71 76 79 81 85 89 93 95 97 100 102 105 108 110 113 115 120 121 122 123 125 124 119 114 109 105 98 89 81 76 71 68 62
47 49 50 52 54 57 60 63 67 71 74 77 79 83 88 92 96 98 100 102 105 107 111 115 115 118 121 122 123 125 124 123 117 112 106 100 91 84 77 73 69 65 61
44 44 48 52 56 60 63 66 70 73 75 78 82 86 89 93 96 98 102 105 107 110 114 116 119 122 121 125 125 121 121 119 115 107 100 94 86 79 73 70 65 62 59
48 50 51 54 57 61 65 68 71 74 78 82 86 88 91 94 97 100 104 106 109 112 115 118 120 121 126 125 122 120 118 113 106 97 94 87 81 75 71 67 62 60 56
53 55 57 60 62 64 67 70 74 78 81 83 86 89 91 96 100 104 107 107 109 113 117 116 120 124 127 123 122 117 112 109 98 92 87 80 78 72 69 64 60 57 54
55 57 60 62 65 67 70 73 75 79 81 84 87 90 93 97 101 105 107 109 112 112 113 119 124 124 123 122 115 110 104 100 92 85 80 78 72 68 67 60 57 54 51
57 59 60 62 65 68 72 75 78 81 84 86 89 91 96 100 101 106 111 112 112 113 119 121 122 121 117 113 109 103 98 92 85 81 76 72 67 65 63 57 54 51 49
59 61 63 66 69 72 75 79 83 85 87 89 91 97 101 101 105 110 111 114 118 121 121 120 118 117 110 105 102 97 91 85 81 76 73 68 63 61 58 54 52 49 47
63 64 67 69 70 72 76 81 84 87 89 92 96 99 100 104 106 108 111 115 120 124 125 121 115 108 103 98 94 90 86 82 77 73 70 65 60 57 55 51 49 46 44
66 67 68 70 75 79 81 85 89 92 94 95 97 100 102 103 107 110 113 117 120 120 117 113 109 103 97 91 88 84 81 77 72 69 65 61 56 53 51 48 45 42 41
68 71 71 75 79 85 88 91 92 92 94 96 98 101 102 109 109 113 115 115 114 110 105 102 99 95 90 87 83 79 75 73 68 65 61 57 53 49 47 44 41 39 38
69 73 76 82 87 92 95 93 94 93 93 98 101 104 108 108 112 113 112 112 108 104 100 95 91 87 85 81 79 75 71 68 64 61 57 53 49 46 43 41 39 37 35
78 82 84 90 94 96 96 97 97 95 100 106 108 108 110 112 112 111 109 106 103 97 93 89 85 82 80 76 74 71 66 61 60 57 53 49 46 43 39 38 37 34 32
83 86 89 92 93 95 96 97 98 102 106 106 107 111 113 112 110 107 101 97 95 92 87 84 80 77 75 72 69 66 62 56 55 52 48 45 42 39 37 36 34 32 31
91 94 96 93 94 95 97 100 104 105 106 107 110 111 111 110 108 102 97 92 88 86 84 81 77 74 71 67 63 61 58 53 50 48 44 41 38 35 34 33 32 30 30
93 88 90 93 96 99 103 104 104 106 108 109 110 110 109 107 103 98 94 91 88 85 81 79 76 71 66 62 59 56 54 50 47 45 41 39 36 33 32 32 30 29 29
89 93 95 99 103 104 104 106 107 108 110 111 110 108 105 100 96 92 89 85 82 79 78 75 71 66 61 58 55 52 51 47 44 41 38 37 34 32 31 30 29 28 28
97 100 103 104 104 106 107 107 109 110 111 109 108 105 99 94 90 86 82 80 77 74 71 69 65 61 58 54 51 47 48 43 41 39 37 34 32 30 29 29 28 27 27
104 106 105 106 107 107 109 111 112 111 109 107 103 98 94 90 85 81 79 76 73 69 67 63 60 57 54 51 48 44 45 41 39 38 36 33 31 29 28 28 27 26 25
106 106 107 108 110 111 112 111 110 109 106 100 95 91 88 84 80 77 74 71 67 64 61 59 56 53 50 47 45 43 41 38 36 35 34 32 29 28 27 27 26 25 24
108 109 110 111 111 112 111 110 108 103 98 94 90 85 81 78 75 72 69 65 62 59 57 55 52 49 46 44 42 41 39 36 33 32 32 30 28 25 25 26 26 25 23
110 111 110 111 112 110 107 104 100 96 92 88 83 80 77 74 70 67 64 61 58 56 54 51 48 46 44 42 40 38 36 34 32 31 30 29 26 24 24 25 25 24 22
Wind_Direction
270 266 265 259 256 256 263 269 271 275 278 282 285 288 289 291 293 298 302 303 305 307 307 305 306 307 307 308 309 309 310 311 311 312 312 312 312 310 308 307 306 304 303
266 266 267 265 259 259 265 269 270 271 276 283 286 286 290 294 296 298 300 303 306 305 305 307 308 309 309 310 309 310 310 311 311 312 312 312 311 310 309 308 307 306 303
269 270 269 268 264 263 265 269 272 276 280 282 280 287 292 294 295 298 302 305 305 305 306 307 309 309 309 310 310 310 311 311 312 312 312 312 312 310 309 308 306 306 303
279 278 277 271 267 267 266 270 275 277 281 282 285 289 293 295 298 301 302 302 303 304 306 307 308 310 310 310 309 310 311 313 312 312 313 313 311 310 309 308 307 305 303
278 275 273 269 268 268 268 272 274 277 280 283 287 290 293 297 298 301 301 302 303 304 306 308 308 309 310 309 310 311 313 311 312 312 313 312 310 309 309 307 307 305 304
273 271 272 272 271 272 273 275 277 279 281 286 291 295 296 297 299 300 300 302 303 305 307 307 308 308 309 310 310 311 311 312 313 312 313 310 309 308 309 307 306 305 303
278 274 273 273 272 273 275 278 281 285 290 292 294 294 296 297 298 299 300 303 304 306 306 307 307 308 309 310 310 311 312 312 311 312 311 308 309 308 307 306 304 303 302
282 281 279 278 278 279 282 285 290 292 292 292 294 296 297 297 298 300 301 303 304 305 306 306 308 309 309 310 310 312 311 310 309 310 308 308 307 308 307 304 304 301 299
283 284 284 284 285 288 290 291 290 291 292 294 296 296 296 297 300 301 303 303 305 305 306 308 309 310 310 310 311 311 310 308 311 310 308 308 306 308 305 304 303 300 297
286 286 287 289 290 290 290 291 292 293 296 296 295 295 299 302 302 302 304 304 304 306 308 309 309 309 310 310 310 309 308 308 309 308 307 307 307 307 304 304 302 299 297
290 290 290 290 290 291 294 295 295 295 295 295 298 301 302 302 303 305 305 305 306 308 309 309 310 310 310 309 308 308 308 309 308 308 308 306 307 305 303 304 300 299 296
289 290 290 292 294 295 294 294 295 296 297 297 298 301 303 303 305 305 307 309 309 310 310 311 311 310 309 308 308 308 308 308 308 308 307 306 306 303 302 301 300 298 295
288 290 292 295 297 298 298 297 296 297 297 299 301 302 303 303 304 307 308 308 309 311 311 311 310 308 307 308 308 308 309 308 309 307 306 306 305 303 301 299 298 296 294
289 292 295 294 294 298 299 300 299 299 300 299 300 302 303 304 306 307 308 308 309 309 310 310 309 308 308 309 309 309 309 308 309 307 306 306 304 301 300 298 296 295 293
289 291 293 296 295 296 298 301 300 298 298 299 301 302 303 305 307 307 307 308 308 309 309 308 307 308 309 309 309 309 308 308 308 306 306 305 303 300 298 296 295 293 293
286 290 290 296 297 298 298 299 300 300 300 301 303 304 305 307 307 308 309 310 310 310 309 308 308 309 309 309 308 308 308 308 307 305 305 303 301 299 296 295 294 293 291
292 294 295 296 295 295 298 299 300 301 304 306 306 307 307 308 309 310 311 311 311 310 309 309 309 309 309 308 308 307 308 307 305 305 304 302 300 298 295 293 292 292 289
294 294 296 297 295 297 300 301 304 306 306 307 307 308 309 310 310 311 311 311 311 310 309 309 309 309 308 308 308 307 307 307 304 302 302 300 299 297 294 291 290 290 288
295 295 296 297 298 300 303 305 306 306 306 307 308 309 310 311 311 313 313 312 311 310 310 310 310 310 309 308 307 307 306 306 303 302 301 300 298 296 293 290 290 289 286
293 294 295 298 303 305 306 306 306 307 308 309 310 311 311 312 313 314 314 314 312 311 311 310 310 310 309 308 307 307 305 304 302 301 300 298 297 295 292 289 288 287 285
296 299 302 304 305 306 306 306 307 308 309 310 311 311 311 312 313 314 313 312 311 310 310 310 310 309 309 308 307 306 303 304 300 299 297 296 295 293 290 287 286 284 282
303 304 305 305 305 306 307 308 309 310 310 311 310 311 312 313 313 313 312 310 310 310 309 308 308 309 308 308 306 305 301 302 299 298 297 295 293 290 286 285 283 281 280
304 304 305 306 307 308 309 310 310 310 310 310 311 311 312 312 312 312 311 310 310 310 309 308 308 308 307 306 306 303 300 300 297 296 294 293 291 288 283 281 280 280 279
304 305 306 307 308 309 309 309 309 308 309 310 311 311 312 311 311 311 311 310 310 309 309 308 308 307 306 305 304 302 300 299 296 294 292 291 290 286 281 278 277 276 277
304 305 306 307 307 308 308 308 308 309 310 311 311 311 311 311 311 310 309 309 309 309 308 307 307 306 305 305 303 300 299 298 297 294 291 289 288 284 279 274 273 274 274
304 305 306 306 306 307 307 308 309 309 309 310 310 310 311 311 311 310 309 309 309 308 308 307 307 305 304 304 302 299 298 299 297 293 290 288 286 282 275 272 270 271 271
Height
10556 10555 10553 10551 10550 10548 10545 10543 10540 10535 10529 10524 10518 10510 10502 10496 10489 10479 10469 10460 10446 10434 10422 10411 10397 10385 10369 10357 10343 10326 10310 10293 10281 10265 10240 10222 10212 10195 10175 10161 10149 10137 10124
10545 10544 10543 10541 10539 10537 10534 10531 10527 10521 10516 10510 10500 10495 10488 10480 10468 10460 10450 10440 10428 10416 10402 10389 10373 10360 10345 10331 10315 10299 10283 10267 10252 10240 10218 10196 10180 10164 10150 10136 10123 10114 10103
10533 10531 10531 10529 10527 10525 10522 10519 10514 10509 10504 10497 10488 10479 10471 10465 10455 10445 10431 10419 10408 10396 10381 10367 10352 10338 10322 10306 10289 10273 10257 10242 10224 10210 10196 10171 10154 10137 10125 10113 10100 10092 10084
10523 10521 10519 10517 10514 10511 10508 10506 10502 10496 10489 10480 10474 10467 10456 10445 10433 10423 10414 10403 10390 10377 10362 10347 10332 10316 10299 10282 10265 10249 10233 10215 10196 10180 10165 10148 10128 10114 10103 10091 10079 10071 10064
10511 10508 10506 10503 10501 10499 10496 10492 10488 10482 10474 10466 10459 10451 10440 10428 10417 10406 10394 10382 10369 10356 10339 10325 10310 10294 10276 10258 10240 10223 10207 10188 10171 10153 10138 10121 10105 10094 10083 10071 10061 10052 10045
10499 10496 10492 10491 10488 10486 10482 10477 10472 10466 10460 10452 10443 10432 10421 10409 10396 10385 10373 10362 10347 10333 10318 10301 10287 10273 10254 10234 10217 10202 10182 10158 10144 10127 10115 10096 10085 10073 10062 10052 10043 10034 10026
10489 10486 10482 10479 10475 10472 10467 10462 10456 10449 10442 10433 10425 10415 10403 10391 10379 10366 10352 10340 10327 10312 10295 10279 10263 10243 10227 10208 10191 10179 10158 10138 10119 10105 10091 10072 10064 10053 10044 10033 10025 10017 10009
10476 10473 10470 10466 10462 10458 10453 10446 10439 10432 10424 10415 10405 10395 10384 10371 10359 10346 10332 10320 10308 10291 10274 10256 10236 10218 10197 10179 10164 10148 10130 10114 10100 10092 10068 10053 10043 10034 10025 10015 10008 10000 9993
10464 10460 10456 10452 10447 10443 10437 10430 10423 10415 10407 10397 10387 10376 10365 10351 10337 10322 10310 10298 10284 10267 10249 10230 10212 10192 10170 10152 10135 10119 10105 10083 10075 10061 10044 10036 10024 10013 10004 9998 9991 9984 9977
10451 10447 10442 10437 10432 10427 10420 10413 10405 10396 10387 10377 10366 10356 10344 10331 10314 10298 10284 10272 10259 10244 10227 10206 10185 10166 10148 10123 10110 10095 10081 10062 10052 10040 10028 10013 10006 9996 9984 9981 9974 9967 9961
10437 10432 10427 10421 10415 10409 10401 10393 10384 10376 10366 10356 10344 10332 10320 10306 10290 10275 10257 10241 10227 10216 10198 10182 10161 10137 10123 10102 10083 10070 10055 10042 10030 10016 10006 9997 9989 9978 9968 9963 9958 9952 9945
10421 10416 10410 10403 10397 10390 10382 10374 10365 10355 10344 10333 10321 10308 10295 10279 10265 10250 10230 10209 10191 10179 10166 10150 10129 10109 10092 10078 10060 10046 10032 10019 10007 9996 9985 9977 9971 9962 9953 9948 9942 9937 9931
10404 10399 10392 10386 10378 10370 10361 10351 10341 10331 10320 10309 10297 10284 10270 10256 10241 10227 10211 10191 10170 10149 10128 10114 10099 10083 10068 10054 10037 10022 10009 9997 9986 9975 9966 9959 9953 9944 9937 9932 9928 9923 9918
10387 10381 10373 10365 10357 10348 10338 10328 10317 10307 10296 10285 10274 10261 10247 10232 10218 10203 10187 10169 10150 10130 10112 10091 10069 10054 10040 10028 10015 10001 9988 9976 9967 9957 9948 9942 9936 9929 9923 9918 9914 9909 9905
10369 10362 10354 10346 10337 10327 10317 10305 10294 10283 10272 10260 10249 10236 10223 10208 10192 10176 10160 10143 10124 10108 10091 10069 10049 10030 10017 10003 9991 9981 9970 9958 9949 9939 9932 9925 9919 9914 9909 9904 9900 9896 9893
10350 10341 10333 10324 10314 10303 10292 10283 10267 10255 10244 10233 10221 10208 10192 10179 10164 10148 10129 10109 10091 10074 10057 10042 10026 10011 9997 9985 9972 9961 9952 9941 9932 9923 9916 9910 9904 9899 9895 9890 9887 9884 9881
10329 10320 10310 10301 10289 10278 10266 10254 10242 10232 10217 10202 10187 10175 10160 10147 10132 10117 10101 10082 10062 10048 10030 10016 10002 9990 9977 9966 9954 9944 9934 9925 9916 9908 9901 9895 9890 9885 9881 9877 9875 9873 9870
10305 10296 10286 10276 10264 10253 10241 10229 10216 10203 10189 10174 10162 10147 10129 10115 10100 10087 10073 10057 10038 10018 10005 9993 9982 9969 9958 9947 9936 9925 9916 9910 9901 9894 9888 9882 9877 9872 9869 9866 9863 9861 9858
10281 10270 10261 10251 10240 10228 10215 10202 10189 10176 10163 10149 10134 10119 10103 10085 10070 10054 10039 10026 10013 9998 9982 9969 9959 9948 9938 9927 9918 9908 9900 9893 9886 9879 9874 9869 9865 9861 9857 9854 9852 9850 9848
10255 10245 10236 10225 10213 10201 10189 10176 10163 10149 10135 10120 10106 10090 10075 10059 10042 10026 10012 9997 9984 9971 9959 9947 9936 9927 9918 9909 9900 9892 9884 9878 9872 9866 9862 9857 9854 9850 9847 9844 9841 9840 9838
10231 10220 10209 10197 10186 10174 10162 10149 10136 10122 10107 10092 10076 10062 10048 10034 10019 10005 9991 9977 9964 9952 9939 9927 9918 9908 9900 9892 9884 9877 9869 9863 9859 9854 9850 9846 9842 9839 9836 9834 9832 9831 9829
10203 10192 10181 10170 10159 10146 10134 10121 10107 10093 10079 10065 10050 10035 10021 10007 9994 9982 9969 9956 9944 9933 9921 9909 9900 9892 9883 9876 9870 9863 9855 9850 9845 9841 9837 9834 9832 9829 9826 9824 9823 9822 9820
10176 10166 10155 10142 10130 10117 10104 10091 10077 10064 10050 10037 10023 10009 9995 9983 9971 9959 9946 9934 9923 9913 9903 9893 9884 9875 9868 9861 9855 9849 9842 9838 9833 9829 9825 9823 9821 9819 9816 9814 9813 9813 9811
10150 10139 10127 10114 10101 10089 10076 10063 10049 10036 10023 10010 9997 9985 9972 9960 9949 9937 9925 9913 9904 9895 9886 9876 9868 9860 9854 9847 9841 9835 9830 9826 9822 9818 9814 9812 9810 9808 9807 9805 9804 9803 9802
10123 10112 10100 10087 10074 10062 10048 10035 10021 10009 9996 9985 9972 9961 9949 9938 9927 9916 9905 9896 9887 9878 9870 9861 9853 9846 9840 9834 9828 9822 9818 9814 9810 9807 9804 9801 9800 9799 9797 9795 9794 9794 9794
10097 10085 10073 10060 10047 10034 10020 10007 9994 9983 9971 9960 9949 9938 9927 9916 9906 9896 9886 9878 9870 9861 9853 9845 9839 9832 9826 9821 9816 9811 9806 9802 9799 9796 9793 9791 9790 9789 9788 9787 9786 9786 9786